User: anonymous   Login
Location: Young's Pond
(41.2695°N, 72.7766°W)
Time: 09:39:58
(UTC-05:00)
Language:

Spot 4 - Orbit

View from above orbital plane
View from above orbital plane
View from above satellite
View from above satellite

Ground track
Ground track

The orbit data is extracted from the following two-line orbital elements,

1 25260U 98017A   17021.91346305 -.00000057 +00000-0 -26286-5 0  9995
2 25260 098.3609 104.7452 0013303 008.7996 351.3427 14.53455652980602
Epoch (UTC): 21 January 2017 21:55:23
Eccentricity: 0.0013303
inclination: 98.3609°
perigee height: 705 km
apogee height: 724 km
right ascension of ascending node: 104.7452°
argument of perigee: 8.7996°
revolutions per day: 14.53455652
mean anomaly at epoch: 351.3427°
orbit number at epoch: 98060

The dashed part of the orbit path shows where the satellite is in the earth's shadow,  

DLR